Time,TemperatureF,DewpointF,PressureIn,WindDirection,WindDirectionDegrees,WindSpeedMPH,WindSpeedGustMPH,Humidity,HourlyPrecipIn,Conditions,Clouds,dailyrainin,SoftwareType,DateUTC
2017-02-27 00:02:00,39.7,21.2,30.20,SW,217,1.0,4.0,47,0.00,,,0.00,meteohub,2017-02-27 05:02:00,
2017-02-27 00:07:00,39.7,21.2,30.21,SW,217,1.0,4.0,47,0.00,,,0.00,meteohub,2017-02-27 05:07:00,
2017-02-27 00:12:00,39.9,21.4,30.21,South,188,1.0,4.0,47,0.00,,,0.00,meteohub,2017-02-27 05:12:00,
2017-02-27 00:17:00,39.9,21.4,30.21,SW,222,3.0,4.0,47,0.00,,,0.00,meteohub,2017-02-27 05:17:00,
2017-02-27 00:22:00,40.1,21.0,30.21,SSW,194,2.0,4.0,46,0.00,,,0.00,meteohub,2017-02-27 05:22:00,
2017-02-27 00:27:00,40.3,21.7,30.21,SSW,198,1.0,4.0,47,0.00,,,0.00,meteohub,2017-02-27 05:27:00,
2017-02-27 00:32:00,40.3,21.2,30.21,SSW,206,1.0,5.0,46,0.00,,,0.00,meteohub,2017-02-27 05:32:00,
2017-02-27 00:37:00,40.3,21.7,30.21,SSW,202,1.0,5.0,47,0.00,,,0.00,meteohub,2017-02-27 05:37:00,
2017-02-27 00:42:00,40.3,21.7,30.21,SSW,209,2.0,5.0,47,0.00,,,0.00,meteohub,2017-02-27 05:42:00,
2017-02-27 00:47:00,40.3,21.7,30.21,SSW,202,1.0,6.0,47,0.00,,,0.00,meteohub,2017-02-27 05:47:00,
2017-02-27 00:52:00,40.5,21.4,30.21,SSW,192,1.0,6.0,46,0.00,,,0.00,meteohub,2017-02-27 05:52:00,
2017-02-27 00:57:00,40.5,21.7,30.21,SSW,202,2.0,6.0,47,0.00,,,0.00,meteohub,2017-02-27 05:57:00,
2017-02-27 01:02:00,40.5,21.7,30.22,WSW,252,1.0,6.0,47,0.00,,,0.00,meteohub,2017-02-27 06:02:00,
2017-02-27 01:07:00,40.5,21.7,30.21,SW,219,1.0,6.0,47,0.00,,,0.00,meteohub,2017-02-27 06:07:00,
2017-02-27 01:12:00,40.3,21.7,30.22,SW,236,1.0,6.0,47,0.00,,,0.00,meteohub,2017-02-27 06:12:00,
2017-02-27 01:18:00,40.3,21.7,30.22,SW,236,0.0,4.0,47,0.00,,,0.00,meteohub,2017-02-27 06:18:00,
2017-02-27 01:23:00,40.1,21.6,30.22,SW,236,0.0,3.0,47,0.00,,,0.00,meteohub,2017-02-27 06:23:00,
2017-02-27 01:28:00,39.9,21.7,30.22,SW,236,0.0,3.0,48,0.00,,,0.00,meteohub,2017-02-27 06:28:00,
2017-02-27 01:33:00,39.9,22.3,30.22,SW,236,0.0,2.0,49,0.00,,,0.00,meteohub,2017-02-27 06:33:00,
2017-02-27 01:38:00,39.7,22.1,30.22,SW,214,0.0,1.0,49,0.00,,,0.00,meteohub,2017-02-27 06:38:00,
2017-02-27 01:43:00,39.7,22.1,30.21,SW,214,0.0,2.0,49,0.00,,,0.00,meteohub,2017-02-27 06:43:00,
2017-02-27 01:48:00,39.6,22.5,30.21,SW,214,0.0,2.0,50,0.00,,,0.00,meteohub,2017-02-27 06:48:00,
2017-02-27 01:53:00,39.6,23.0,30.22,SW,214,0.0,2.0,51,0.00,,,0.00,meteohub,2017-02-27 06:53:00,
2017-02-27 01:58:00,39.4,22.3,30.22,SSW,212,0.0,0.0,50,0.00,,,0.00,meteohub,2017-02-27 06:58:00,
2017-02-27 02:04:00,39.4,22.3,30.22,South,183,3.0,0.0,50,0.00,,,0.00,meteohub,2017-02-27 07:04:00,
2017-02-27 02:09:00,39.4,22.3,30.22,SSW,213,1.0,7.0,50,0.00,,,0.00,meteohub,2017-02-27 07:09:00,
2017-02-27 02:14:00,39.4,22.3,30.22,SSW,192,1.0,7.0,50,0.00,,,0.00,meteohub,2017-02-27 07:14:00,
2017-02-27 02:19:00,39.4,22.3,30.22,SSW,192,1.0,7.0,50,0.00,,,0.00,meteohub,2017-02-27 07:19:00,
2017-02-27 02:24:00,39.6,22.5,30.22,SSW,192,1.0,3.0,50,0.00,,,0.00,meteohub,2017-02-27 07:24:00,
2017-02-27 02:29:00,39.6,22.5,30.22,SSW,192,0.0,2.0,50,0.00,,,0.00,meteohub,2017-02-27 07:29:00,
2017-02-27 02:34:00,39.6,22.5,30.22,SSW,192,0.0,2.0,50,0.00,,,0.00,meteohub,2017-02-27 07:34:00,
2017-02-27 02:39:00,39.6,23.0,30.22,SSW,192,1.0,2.0,51,0.00,,,0.00,meteohub,2017-02-27 07:39:00,
2017-02-27 02:44:00,39.6,22.5,30.22,SSW,192,0.0,2.0,50,0.00,,,0.00,meteohub,2017-02-27 07:44:00,
2017-02-27 02:50:00,39.6,23.0,30.22,SSW,192,0.0,3.0,51,0.00,,,0.00,meteohub,2017-02-27 07:50:00,
2017-02-27 02:55:00,39.4,22.8,30.22,SSW,192,0.0,3.0,51,0.00,,,0.00,meteohub,2017-02-27 07:55:00,
2017-02-27 03:00:00,39.4,22.3,30.22,SSW,192,0.0,3.0,50,0.00,,,0.00,meteohub,2017-02-27 08:00:00,
2017-02-27 03:05:00,39.4,22.8,30.22,SSW,192,0.0,3.0,51,0.00,,,0.00,meteohub,2017-02-27 08:05:00,
2017-02-27 03:10:00,39.4,22.8,30.22,SSW,192,0.0,3.0,51,0.00,,,0.00,meteohub,2017-02-27 08:10:00,
2017-02-27 03:15:00,39.4,22.8,30.22,SSW,192,0.0,2.0,51,0.00,,,0.00,meteohub,2017-02-27 08:15:00,
2017-02-27 03:20:00,39.4,22.3,30.23,SSW,192,0.0,2.0,50,0.00,,,0.00,meteohub,2017-02-27 08:20:00,
2017-02-27 03:25:00,39.4,22.8,30.23,SSW,192,0.0,1.0,51,0.00,,,0.00,meteohub,2017-02-27 08:25:00,
2017-02-27 03:31:00,39.4,23.2,30.22,SSW,192,0.0,1.0,52,0.00,,,0.00,meteohub,2017-02-27 08:31:00,
2017-02-27 03:36:00,39.4,22.8,30.23,SSW,192,0.0,1.0,51,0.00,,,0.00,meteohub,2017-02-27 08:36:00,
2017-02-27 03:41:00,39.4,22.8,30.23,SSW,192,1.0,1.0,51,0.00,,,0.00,meteohub,2017-02-27 08:41:00,
2017-02-27 03:46:00,39.4,22.8,30.23,SSW,192,1.0,2.0,51,0.00,,,0.00,meteohub,2017-02-27 08:46:00,
2017-02-27 03:52:00,39.6,23.0,30.24,SW,234,1.0,2.0,51,0.00,,,0.00,meteohub,2017-02-27 08:52:00,
2017-02-27 03:57:00,39.7,23.2,30.24,SW,234,0.0,3.0,51,0.00,,,0.00,meteohub,2017-02-27 08:57:00,
2017-02-27 04:02:00,39.7,22.6,30.23,SW,234,0.0,3.0,50,0.00,,,0.00,meteohub,2017-02-27 09:02:00,
2017-02-27 04:07:00,39.7,22.6,30.23,SW,234,1.0,2.0,50,0.00,,,0.00,meteohub,2017-02-27 09:07:00,
2017-02-27 04:12:00,39.9,22.8,30.23,SW,234,0.0,1.0,50,0.00,,,0.00,meteohub,2017-02-27 09:12:00,
2017-02-27 04:17:00,39.9,22.8,30.24,SW,234,0.0,1.0,50,0.00,,,0.00,meteohub,2017-02-27 09:17:00,
2017-02-27 04:22:00,39.9,22.8,30.23,SW,234,0.0,1.0,50,0.00,,,0.00,meteohub,2017-02-27 09:22:00,
2017-02-27 04:27:00,39.9,23.7,30.24,SW,234,0.0,1.0,52,0.00,,,0.00,meteohub,2017-02-27 09:27:00,
2017-02-27 04:32:00,39.9,23.7,30.25,SW,234,0.0,2.0,52,0.00,,,0.00,meteohub,2017-02-27 09:32:00,
2017-02-27 04:37:00,39.9,24.6,30.24,SW,234,0.0,2.0,54,0.00,,,0.00,meteohub,2017-02-27 09:37:00,
2017-02-27 04:42:00,39.9,23.7,30.24,SW,234,0.0,2.0,52,0.00,,,0.00,meteohub,2017-02-27 09:42:00,
2017-02-27 04:47:00,39.9,23.7,30.25,SSW,209,1.0,1.0,52,0.00,,,0.00,meteohub,2017-02-27 09:47:00,
2017-02-27 04:52:00,39.9,23.7,30.25,SSW,209,1.0,2.0,52,0.00,,,0.00,meteohub,2017-02-27 09:52:00,
2017-02-27 04:57:00,39.9,23.7,30.25,SSW,208,1.0,2.0,52,0.00,,,0.00,meteohub,2017-02-27 09:57:00,
2017-02-27 05:02:00,40.1,23.9,30.25,SSW,208,1.0,2.0,52,0.00,,,0.00,meteohub,2017-02-27 10:02:00,
2017-02-27 05:07:00,40.1,24.3,30.25,SSW,208,0.0,2.0,53,0.00,,,0.00,meteohub,2017-02-27 10:07:00,
2017-02-27 05:12:00,40.1,24.3,30.25,SSW,208,0.0,2.0,53,0.00,,,0.00,meteohub,2017-02-27 10:12:00,
2017-02-27 05:17:00,40.1,24.8,30.25,SSW,208,0.0,1.0,54,0.00,,,0.00,meteohub,2017-02-27 10:17:00,
2017-02-27 05:22:00,39.9,24.3,30.25,SSW,208,0.0,0.0,53,0.00,,,0.00,meteohub,2017-02-27 10:22:00,
2017-02-27 05:27:00,39.9,24.6,30.25,SSW,208,0.0,0.0,54,0.00,,,0.00,meteohub,2017-02-27 10:27:00,
2017-02-27 05:32:00,39.9,25.0,30.25,SSW,208,0.0,0.0,55,0.00,,,0.00,meteohub,2017-02-27 10:32:00,
2017-02-27 05:37:00,39.9,24.3,30.25,SSW,208,0.0,0.0,53,0.00,,,0.00,meteohub,2017-02-27 10:37:00,
2017-02-27 05:42:00,39.7,24.4,30.25,SSW,208,0.0,0.0,54,0.00,,,0.00,meteohub,2017-02-27 10:42:00,
2017-02-27 05:47:00,39.7,23.5,30.24,SSW,208,0.0,0.0,52,0.00,,,0.00,meteohub,2017-02-27 10:47:00,
2017-02-27 05:52:00,39.7,24.1,30.25,SSW,208,0.0,0.0,53,0.00,,,0.00,meteohub,2017-02-27 10:52:00,
2017-02-27 05:57:00,39.7,25.0,30.25,SSW,208,0.0,0.0,55,0.00,,,0.00,meteohub,2017-02-27 10:57:00,
2017-02-27 06:02:00,39.7,25.3,30.26,SSW,208,1.0,2.0,56,0.00,,,0.00,meteohub,2017-02-27 11:02:00,
2017-02-27 06:07:00,39.9,24.6,30.25,SSW,206,1.0,2.0,54,0.00,,,0.00,meteohub,2017-02-27 11:07:00,
2017-02-27 06:12:00,39.9,24.3,30.25,SSW,206,0.0,2.0,53,0.00,,,0.00,meteohub,2017-02-27 11:12:00,
2017-02-27 06:17:00,40.3,24.1,30.25,SSW,202,1.0,2.0,52,0.00,,,0.00,meteohub,2017-02-27 11:17:00,
2017-02-27 06:22:00,40.3,24.1,30.25,SSW,201,0.0,3.0,52,0.00,,,0.00,meteohub,2017-02-27 11:22:00,
2017-02-27 06:27:00,40.5,24.3,30.25,SSE,165,0.0,3.0,52,0.00,,,0.00,meteohub,2017-02-27 11:27:00,
2017-02-27 06:32:00,40.5,24.3,30.26,SSE,165,0.0,5.0,52,0.00,,,0.00,meteohub,2017-02-27 11:32:00,
2017-02-27 06:37:00,40.5,23.7,30.26,South,169,1.0,5.0,51,0.00,,,0.00,meteohub,2017-02-27 11:37:00,
2017-02-27 06:42:00,40.6,23.9,30.26,SSE,160,1.0,4.0,51,0.00,,,0.00,meteohub,2017-02-27 11:42:00,
2017-02-27 06:47:00,40.6,23.9,30.26,South,182,1.0,4.0,51,0.00,,,0.00,meteohub,2017-02-27 11:47:00,
2017-02-27 06:52:00,40.8,24.6,30.26,SSW,195,0.0,4.0,52,0.00,,,0.00,meteohub,2017-02-27 11:52:00,
2017-02-27 06:57:00,40.8,24.6,30.26,South,188,1.0,3.0,52,0.00,,,0.00,meteohub,2017-02-27 11:57:00,
2017-02-27 07:02:00,40.8,24.6,30.25,South,189,0.0,4.0,52,0.00,,,0.00,meteohub,2017-02-27 12:02:00,
2017-02-27 07:07:00,40.8,24.6,30.25,SSE,167,3.0,4.0,52,0.00,,,0.00,meteohub,2017-02-27 12:07:00,
2017-02-27 07:12:00,40.8,24.6,30.26,SSE,157,1.0,4.0,52,0.00,,,0.00,meteohub,2017-02-27 12:12:00,
2017-02-27 07:17:00,40.8,25.0,30.26,South,188,0.0,4.0,53,0.00,,,0.00,meteohub,2017-02-27 12:17:00,
2017-02-27 07:22:00,41.0,25.2,30.25,South,171,1.0,4.0,53,0.00,,,0.00,meteohub,2017-02-27 12:22:00,
2017-02-27 07:27:00,41.0,25.2,30.26,SSW,196,2.0,4.0,53,0.00,,,0.00,meteohub,2017-02-27 12:27:00,
2017-02-27 07:32:00,41.2,25.9,30.26,SW,224,1.0,4.0,54,0.00,,,0.00,meteohub,2017-02-27 12:32:00,
2017-02-27 07:37:00,41.2,25.9,30.27,South,185,3.0,5.0,54,0.00,,,0.00,meteohub,2017-02-27 12:37:00,
2017-02-27 07:42:00,41.4,26.4,30.26,South,187,2.0,5.0,55,0.00,,,0.00,meteohub,2017-02-27 12:42:00,
2017-02-27 07:47:00,41.5,27.0,30.26,WSW,240,3.0,7.0,56,0.00,,,0.00,meteohub,2017-02-27 12:47:00,
2017-02-27 07:52:00,41.5,27.9,30.27,SSW,200,2.0,8.0,58,0.00,,,0.00,meteohub,2017-02-27 12:52:00,
2017-02-27 07:57:00,41.7,28.9,30.27,SSW,209,3.0,8.0,60,0.00,,,0.00,meteohub,2017-02-27 12:57:00,
2017-02-27 08:02:00,41.9,29.5,30.27,SW,227,3.0,8.0,61,0.00,,,0.00,meteohub,2017-02-27 13:02:00,
2017-02-27 08:07:00,42.1,30.4,30.27,SSW,212,2.0,8.0,63,0.00,,,0.00,meteohub,2017-02-27 13:07:00,
2017-02-27 08:12:00,42.1,31.1,30.27,SW,221,3.0,8.0,65,0.00,,,0.00,meteohub,2017-02-27 13:12:00,
2017-02-27 08:17:00,42.1,31.5,30.27,SSE,157,5.0,8.0,66,0.00,,,0.00,meteohub,2017-02-27 13:17:00,
2017-02-27 08:22:00,42.3,32.2,30.28,South,178,5.0,7.0,67,0.00,,,0.00,meteohub,2017-02-27 13:22:00,
2017-02-27 08:27:00,42.3,32.9,30.28,SSW,213,5.0,7.0,69,0.00,,,0.00,meteohub,2017-02-27 13:27:00,
2017-02-27 08:32:00,42.3,33.6,30.28,South,178,5.0,7.0,71,0.00,,,0.00,meteohub,2017-02-27 13:32:00,
2017-02-27 08:37:00,42.3,33.8,30.27,SW,215,2.0,7.0,72,0.00,,,0.00,meteohub,2017-02-27 13:37:00,
2017-02-27 08:42:00,42.3,34.2,30.28,South,175,3.0,8.0,73,0.00,,,0.00,meteohub,2017-02-27 13:42:00,
2017-02-27 08:47:00,42.3,34.5,30.28,SW,225,4.0,8.0,74,0.00,,,0.00,meteohub,2017-02-27 13:47:00,
2017-02-27 08:52:00,42.3,34.9,30.28,South,190,4.0,8.0,75,0.00,,,0.00,meteohub,2017-02-27 13:52:00,
2017-02-27 08:57:00,42.3,34.9,30.28,SW,219,1.0,7.0,75,0.00,,,0.00,meteohub,2017-02-27 13:57:00,
2017-02-27 09:02:00,42.3,35.2,30.29,West,264,2.0,7.0,76,0.00,,,0.00,meteohub,2017-02-27 14:02:00,
2017-02-27 09:07:00,42.4,35.8,30.29,SSW,192,5.0,7.0,77,0.00,,,0.00,meteohub,2017-02-27 14:07:00,
2017-02-27 09:12:00,42.4,35.8,30.29,South,183,4.0,9.0,77,0.00,,,0.00,meteohub,2017-02-27 14:12:00,
2017-02-27 09:17:00,42.3,36.0,30.28,South,175,3.0,11.0,78,0.00,,,0.00,meteohub,2017-02-27 14:17:00,
2017-02-27 09:22:00,42.3,36.1,30.28,South,189,5.0,11.0,79,0.00,,,0.00,meteohub,2017-02-27 14:22:00,
2017-02-27 09:27:00,42.3,36.5,30.28,South,184,4.0,11.0,80,0.00,,,0.00,meteohub,2017-02-27 14:27:00,
2017-02-27 09:32:00,42.3,36.5,30.29,SSE,168,5.0,11.0,80,0.00,,,0.00,meteohub,2017-02-27 14:32:00,
2017-02-27 09:37:00,42.4,37.0,30.29,SSW,205,2.0,11.0,81,0.00,,,0.00,meteohub,2017-02-27 14:37:00,
2017-02-27 09:42:00,42.4,37.0,30.28,SW,225,3.0,9.0,81,0.00,,,0.00,meteohub,2017-02-27 14:42:00,
2017-02-27 09:47:00,42.4,37.4,30.28,South,171,6.0,9.0,82,0.00,,,0.00,meteohub,2017-02-27 14:47:00,
2017-02-27 09:52:00,42.8,37.8,30.28,SW,219,2.0,10.0,82,0.00,,,0.00,meteohub,2017-02-27 14:52:00,
2017-02-27 09:57:00,43.2,38.3,30.28,SW,215,3.0,10.0,83,0.00,,,0.00,meteohub,2017-02-27 14:57:00,
2017-02-27 10:02:00,43.3,38.3,30.28,SSW,206,2.0,10.0,82,0.00,,,0.00,meteohub,2017-02-27 15:02:00,
2017-02-27 10:07:00,43.5,38.5,30.28,South,179,3.0,10.0,82,0.00,,,0.00,meteohub,2017-02-27 15:07:00,
2017-02-27 10:12:00,43.5,38.1,30.28,SSW,199,3.0,10.0,81,0.00,,,0.00,meteohub,2017-02-27 15:12:00,
2017-02-27 10:17:00,43.5,38.5,30.28,SW,217,5.0,11.0,82,0.00,,,0.00,meteohub,2017-02-27 15:17:00,
2017-02-27 10:22:00,43.5,38.5,30.28,SSE,151,2.0,11.0,82,0.00,,,0.00,meteohub,2017-02-27 15:22:00,
2017-02-27 10:27:00,43.5,38.5,30.28,SSW,209,3.0,8.0,82,0.00,,,0.00,meteohub,2017-02-27 15:27:00,
2017-02-27 10:32:00,43.9,38.7,30.28,SSW,207,3.0,7.0,82,0.00,,,0.00,meteohub,2017-02-27 15:32:00,
2017-02-27 10:37:00,44.2,39.0,30.28,SSE,167,3.0,8.0,82,0.00,,,0.00,meteohub,2017-02-27 15:37:00,
2017-02-27 10:42:00,45.1,39.4,30.28,SSE,155,4.0,8.0,80,0.00,,,0.00,meteohub,2017-02-27 15:42:00,
2017-02-27 10:47:00,45.7,39.2,30.28,South,183,2.0,10.0,78,0.00,,,0.00,meteohub,2017-02-27 15:47:00,
2017-02-27 10:52:00,45.7,39.2,30.28,South,182,2.0,10.0,78,0.00,,,0.00,meteohub,2017-02-27 15:52:00,
2017-02-27 10:57:00,45.7,38.8,30.28,South,185,2.0,10.0,77,0.00,,,0.00,meteohub,2017-02-27 15:57:00,
2017-02-27 11:02:00,46.0,39.6,30.28,SW,223,3.0,8.0,78,0.00,,,0.00,meteohub,2017-02-27 16:02:00,
2017-02-27 11:07:00,46.6,39.7,30.28,SSW,192,5.0,7.0,77,0.00,,,0.00,meteohub,2017-02-27 16:07:00,
2017-02-27 11:12:00,46.8,39.6,30.28,South,177,5.0,7.0,76,0.00,,,0.00,meteohub,2017-02-27 16:12:00,
2017-02-27 11:17:00,46.9,39.4,30.27,South,173,5.0,10.0,75,0.00,,,0.00,meteohub,2017-02-27 16:17:00,
2017-02-27 11:22:00,47.5,39.6,30.27,SSW,195,6.0,10.0,74,0.00,,,0.00,meteohub,2017-02-27 16:22:00,
2017-02-27 11:27:00,47.7,39.4,30.27,South,190,3.0,10.0,73,0.00,,,0.00,meteohub,2017-02-27 16:27:00,
2017-02-27 11:32:00,47.3,39.0,30.28,SSE,159,5.0,10.0,73,0.00,,,0.00,meteohub,2017-02-27 16:32:00,
2017-02-27 11:37:00,46.8,39.2,30.28,South,188,1.0,11.0,75,0.00,,,0.00,meteohub,2017-02-27 16:37:00,
2017-02-27 11:42:00,46.8,39.2,30.28,SW,231,5.0,11.0,75,0.00,,,0.00,meteohub,2017-02-27 16:42:00,
2017-02-27 11:47:00,46.4,38.8,30.28,SW,215,0.0,11.0,75,0.00,,,0.00,meteohub,2017-02-27 16:47:00,
2017-02-27 11:52:00,46.2,38.7,30.27,SSE,156,2.0,9.0,75,0.00,,,0.00,meteohub,2017-02-27 16:52:00,
2017-02-27 11:57:00,46.2,39.0,30.28,South,180,3.0,9.0,76,0.00,,,0.00,meteohub,2017-02-27 16:57:00,
2017-02-27 12:02:00,46.2,38.7,30.28,South,175,4.0,9.0,75,0.00,,,0.00,meteohub,2017-02-27 17:02:00,
2017-02-27 12:07:00,46.0,38.5,30.27,SSW,211,1.0,13.0,75,0.00,,,0.00,meteohub,2017-02-27 17:07:00,
2017-02-27 12:12:00,46.2,39.0,30.27,SW,229,1.0,13.0,76,0.00,,,0.00,meteohub,2017-02-27 17:12:00,
2017-02-27 12:17:00,46.4,39.2,30.27,SSE,149,3.0,13.0,76,0.00,,,0.00,meteohub,2017-02-27 17:17:00,
2017-02-27 12:22:00,46.2,39.0,30.27,East,93,8.0,9.0,76,0.00,,,0.00,meteohub,2017-02-27 17:22:00,
2017-02-27 12:27:00,46.0,38.8,30.27,SW,220,4.0,10.0,76,0.00,,,0.00,meteohub,2017-02-27 17:27:00,
2017-02-27 12:32:00,45.9,39.0,30.27,SW,215,3.0,10.0,77,0.00,,,0.00,meteohub,2017-02-27 17:32:00,
2017-02-27 12:37:00,45.7,38.8,30.27,SE,130,4.0,11.0,77,0.00,,,0.00,meteohub,2017-02-27 17:37:00,
2017-02-27 12:42:00,45.7,38.8,30.27,SW,233,4.0,11.0,77,0.00,,,0.00,meteohub,2017-02-27 17:42:00,